Погода в Азёво

Россия / Республика Татарстан     55°59′56″N   53°08′07″E
темп.,
°C
ветер,
м/с
пор.,
м/с
влажн.,
%
обл.,
%
осадки,
мм/ч
давл.,
гПа
погр.,
м
24 января, вс
вс2400:00−12ююв5995100 0.4 1025303
03:00−9юв3596100 1.4 1020164
06:00−10ююв4795100 1.1 1023271
09:00−7ююв4796100 1.7 1022200
12:00−1ююз3899100 0.4 1022229
15:00+1зюз510100100 0.6 1022353
18:00+1зюз4999100 0.1 1023225
21:00+1юз39100100 0.3 1025248
25 января, пн
пн2500:00+1юз4999100 0.3 1025271
03:000юз5996100 0.2 1026356
06:00−1юз51097100 0.1 1027393
09:000юз4997100 0.4 1027340
12:000юз5999100 0.5 1027449
15:00−1юз61197100 2.3 1028578
18:00−2юз5109399 0.6 1029516
21:00−2юз599399 0.6 1029505
26 января, вт
вт2600:00−2ююз4993100 0.0 1029545
03:00−2ююз5991100 0.1 1029554
06:00−4ю41095100 0.1 1028529
09:00−3ююз4994100 0.1 1028687
12:00−1ююз51091100 0.1 1027775
15:00−1ююз51091100 0.1 1026637
18:00−4ю51194100 0.0 1027481
21:00−4ююз41095100 0.0 1026466
27 января, ср
ср2700:00−5ююз4995100 0.1 1027461
03:00−6ююз3895100 0.1 1027489
06:00−4ююз51296100 0.8 1023559
09:00−6ю51095100 0.2 1026360
12:00−7ю4893100 0.1 1026366
15:00−1юз4897100 0.3 1025427
18:00−8ю499491 0.0 1026226
21:00−9ю499296 0.0 1025197
28 января, чт
чт2800:00−8ююв41089100 0.0 1024247
03:00−7ю41187100 0.0 1024258
06:00−8ю41187100 0.0 1023263
09:00−10юв3692100 0.0 1029159
12:00−7ююв4788100 0.0 1029232
15:00−8юв4790100 0.0 1029150
18:00−8ю41190100 0.0 1020270
21:00−8ю51188100 0.0 1019303